[[{"header":{"parameterUnit":"m.s-1","parameterCategory":1,"la1":30.2991,"la2":30.254,"lo1":-89.0895,"lo2":-89.0444,"dy":0.0017,"dx":0.0017,"nx":28,"ny":28,"refTime":"2024-08-18T03:00:00:Z","depth":0,"parameterNumber":2,"parameterNumberName":"U-component_of_WINDS"},"data":[0,0,0,0,0,0,0,0,0,0,0,0,0,0,0,0,0,0,0,0,0,0,0,0,0,0,0,0,0,0,0,0,0,0,0,0,0,0,0,0,0,0,0,0,0,0,0,0,0,0,0,0,0,0,0,0,0,0,1.2989,1.2989,0,1.307,1.3071,1.3072,1.3062,1.3061,1.3059,1.3058,1.3147,1.3151,1.3154,0,0,0,0,0,0,0,0,0,0,0,0,0,1.2831,1.2834,1.2988,1.299,1.2991,1.307,1.3071,1.3072,1.3062,1.3061,1.3059,1.3058,1.3146,1.315,1.3155,0,0,0,0,0,0,0,0,0,0,0,0,0,1.2905,1.2835,1.2988,1.2995,1.2996,1.307,1.3071,1.3072,1.3063,1.3061,1.3059,1.3057,1.3145,1.315,1.3155,1.3229,0,0,1.3172,1.3174,0,0,0,0,0,0,0,0,1.2901,1.2911,1.2993,1.2995,1.2996,1.3054,1.3048,1.3125,1.3063,1.3038,1.3058,1.3056,1.3118,1.3126,1.3145,1.3233,1.3237,1.3172,1.3176,1.3178,1.3179,0,0,0,0,0,0,0,1.2896,1.2907,1.3021,1.2994,1.2996,1.2996,1.3005,1.3063,1.3088,1.304,1.3039,1.3049,1.3119,1.314,1.3147,1.3238,1.3172,1.3177,1.318,1.3182,1.3394,1.3396,0,0,0,0,0,0,1.2888,1.2903,1.3018,1.3023,1.2943,1.3001,1.301,1.3037,1.3088,1.3093,1.305,1.3048,1.3132,1.3141,1.3151,1.3243,1.3178,1.3183,1.3186,1.3392,1.3395,1.3397,0,0,0,0,0,0,1.2885,1.2898,1.3015,1.2963,1.2978,1.3006,1.3037,1.304,1.3062,1.3095,1.3101,1.3067,1.3131,1.3143,1.321,1.3246,1.3185,1.319,1.3389,1.3393,1.3396,1.3426,0,0,0,0,0,0,1.288,1.2897,1.2924,1.2964,1.2981,1.3071,1.3039,1.3043,1.307,1.3068,1.3113,1.3118,1.313,1.3202,1.3215,1.3252,1.3195,1.3386,1.3391,1.3395,1.3422,1.343,1.3437,0,0,0,0,0,1.2875,1.2929,1.2925,1.2939,1.3014,1.3073,1.3083,1.3094,1.3073,1.3102,1.3124,1.3117,1.3239,1.3209,1.3224,1.3263,1.3384,1.3389,1.3394,1.3419,1.3429,1.3437,0,0,0,0,0,0,1.2894,1.2935,1.293,1.2999,1.3032,1.3071,1.3107,1.3103,1.3145,1.3141,1.3155,1.3165,1.3233,1.3254,1.322,1.3339,1.3309,1.3318,1.3322,1.3332,1.3339,1.3334,1.3199,0,0,0,0,0,1.2906,1.2948,1.2982,1.304,1.3057,1.3079,1.3105,1.311,1.3146,1.3161,1.3188,1.3225,1.3272,1.3303,1.3348,1.3424,1.3436,1.3459,1.3466,1.3473,1.3481,1.3527,1.3538,1.3415,1.3415,1.3415,0,0,1.2932,1.2959,1.2985,1.3044,1.3071,1.3118,1.3091,1.314,1.3176,1.3169,1.3234,1.3256,1.3298,1.3371,1.3405,1.3391,1.3517,1.3479,1.3484,1.3489,1.3533,1.3545,1.3555,1.3418,1.3418,1.3417,0,0,1.3003,1.3026,1.3078,1.3106,1.3146,1.3161,1.3173,1.3213,1.3227,1.3292,1.3289,1.3332,1.3412,1.3443,1.3469,1.3555,1.3552,1.3569,1.361,1.3654,1.3664,1.3673,1.3707,1.3718,1.3577,1.3577,1.3577,0,1.3031,1.3098,1.3106,1.3157,1.3185,1.3179,1.3234,1.3261,1.3314,1.3335,1.3318,1.342,1.3448,1.353,1.3551,1.3571,1.3589,1.3565,1.3662,1.3671,1.3679,1.3711,1.3724,1.3579,1.3579,1.3578,1.3578,0,1.3132,1.3179,1.3217,1.3268,1.3299,1.3352,1.3371,1.3402,1.3405,1.3423,1.3492,1.3525,1.3578,1.3597,1.3601,1.3681,1.3672,1.3658,1.3629,1.3693,1.3724,1.3736,1.3582,1.3581,1.358,1.358,0,0,1.3218,1.3273,1.3287,1.3312,1.3357,1.3395,1.3448,1.3499,1.3528,1.3565,1.3613,1.3681,1.367,1.37,1.3707,1.3746,1.3816,1.3728,1.3729,1.3746,1.391,1.3922,1.3936,1.3813,1.3815,1.3817,1.3908,0,1.3296,1.3389,1.3399,1.3483,1.3529,1.3525,1.3573,1.3607,1.3625,1.3669,1.3689,1.3739,1.3718,1.3737,1.3774,1.3799,1.3849,1.3792,1.3861,1.3863,1.3853,1.3952,1.3964,1.4048,1.392,1.3922,1.3923,0,1.3399,1.3439,1.3528,1.3569,1.3589,1.363,1.368,1.372,1.376,1.3771,1.3805,1.3808,1.3867,1.3834,1.3917,1.3878,1.3906,1.3923,1.3927,1.3936,1.3899,1.3967,1.4075,1.4089,1.3942,1.394,1.3939,0,1.3457,1.3533,1.3597,1.3617,1.3666,1.3696,1.3718,1.3756,1.3787,1.383,1.3851,1.3901,1.3929,1.3969,1.3987,1.396,1.407,1.4038,1.4084,1.4084,1.4109,1.4107,1.4226,1.4122,1.4122,1.4122,1.4122,0,1.3545,1.36,1.3624,1.3663,1.3726,1.3738,1.3801,1.3822,1.3856,1.3902,1.3902,1.3945,1.3964,1.4012,1.4026,1.4095,1.4107,1.4119,1.4123,1.4121,1.412,1.4142,1.4138,1.4125,1.4124,1.4124,1.4123,0,1.3621,1.3639,1.3708,1.3749,1.376,1.3805,1.3841,1.3881,1.3899,1.3957,1.3972,1.4,1.4056,1.4077,1.4145,1.4155,1.4236,1.4233,1.4222,1.4224,1.427,1.4267,1.4409,1.443,1.431,1.4311,1.4312,0,1.3677,1.372,1.3765,1.3795,1.3818,1.3866,1.3897,1.3911,1.3944,1.3994,1.4029,1.4084,1.413,1.422,1.4249,1.4302,1.4303,1.4349,1.4311,1.4308,1.4307,1.4306,1.4312,1.4357,1.4358,1.4359,1.436,0,1.3776,1.3783,1.3827,1.3876,1.3913,1.3952,1.399,1.4015,1.4036,1.4074,1.413,1.4165,1.4235,1.4292,1.4346,1.4372,1.4371,1.4371,1.4386,1.4385,1.4379,1.4386,1.4245,1.4369,1.4368,1.4367,1.4367,1.4366,1.3847,1.3885,1.3924,1.3974,1.4004,1.404,1.408,1.4103,1.415,1.4207,1.4213,1.4275,1.4317,1.439,1.4418,1.4469,1.4457,1.4476,1.4482,1.4487,1.4492,1.4368,1.4479,1.4478,1.4478,1.4478,1.4478,0,1.3949,1.3973,1.4019,1.4072,1.4113,1.4106,1.4148,1.4183,1.4237,1.4275,1.432,1.4387,1.4442,1.4475,1.4531,1.4566,1.4567,1.458,1.458,1.4586,1.4498,1.4482,1.4579,1.4579,1.4579,1.4579,1.4579,1.4579,1.4006,1.4073,1.4085,1.4167,1.4192,1.4252,1.4277,1.4312,1.4342,1.4417,1.4462,1.4482,1.452,1.4579,1.4631,1.4639,1.4661,1.4676,1.4685,1.4602,1.4592,1.4582,1.4567,1.468,1.468,1.4769,1.477,1.477]},{"header":{"parameterUnit":"m.s-1","parameterCategory":1,"la1":30.2991,"la2":30.254,"lo1":-89.0895,"lo2":-89.0444,"dy":0.0017,"dx":0.0017,"nx":28,"ny":28,"refTime":"2024-08-18T03:00:00:Z","depth":0,"parameterNumber":3,"parameterNumberName":"V-component_of_WINDS"},"data":[0,0,0,0,0,0,0,0,0,0,0,0,0,0,0,0,0,0,0,0,0,0,0,0,0,0,0,0,0,0,0,0,0,0,0,0,0,0,0,0,0,0,0,0,0,0,0,0,0,0,0,0,0,0,0,0,0,0,-0.8881,-0.8881,0,-0.8815,-0.8814,-0.8814,-0.8832,-0.8834,-0.8835,-0.8836,-0.8767,-0.8764,-0.8761,0,0,0,0,0,0,0,0,0,0,0,0,0,-0.9026,-0.9023,-0.8881,-0.8881,-0.888,-0.8815,-0.8814,-0.8813,-0.8832,-0.8834,-0.8836,-0.8837,-0.8768,-0.8764,-0.876,0,0,0,0,0,0,0,0,0,0,0,0,0,-0.8961,-0.9022,-0.8882,-0.8882,-0.8881,-0.8815,-0.8814,-0.8813,-0.8832,-0.8834,-0.8836,-0.8838,-0.8769,-0.8764,-0.876,-0.869,0,0,-0.8745,-0.8743,0,0,0,0,0,0,0,0,-0.8965,-0.8956,-0.8882,-0.8881,-0.8881,-0.8834,-0.884,-0.8772,-0.8831,-0.885,-0.8837,-0.8839,-0.8787,-0.8781,-0.8764,-0.8687,-0.8684,-0.8745,-0.8742,-0.874,-0.8739,0,0,0,0,0,0,0,-0.8969,-0.8959,-0.8855,-0.8881,-0.888,-0.8885,-0.8878,-0.8827,-0.8808,-0.8849,-0.885,-0.8842,-0.8787,-0.8769,-0.8763,-0.8683,-0.8745,-0.8741,-0.8738,-0.8736,-0.8549,-0.8547,0,0,0,0,0,0,-0.8975,-0.8963,-0.8857,-0.8853,-0.8929,-0.8881,-0.8873,-0.8847,-0.8809,-0.8805,-0.884,-0.8843,-0.8776,-0.8768,-0.876,-0.8679,-0.874,-0.8736,-0.8733,-0.8551,-0.8548,-0.8546,0,0,0,0,0,0,-0.8978,-0.8965,-0.886,-0.8908,-0.8895,-0.8876,-0.8847,-0.8845,-0.8826,-0.8802,-0.8799,-0.8825,-0.8777,-0.8767,-0.8708,-0.8677,-0.8734,-0.8729,-0.8554,-0.855,-0.8547,-0.8514,0,0,0,0,0,0,-0.8982,-0.8966,-0.8939,-0.8908,-0.8893,-0.8808,-0.8845,-0.8842,-0.8818,-0.8821,-0.8787,-0.8783,-0.8778,-0.8715,-0.8704,-0.8671,-0.8726,-0.8556,-0.8552,-0.8548,-0.8518,-0.851,-0.8503,0,0,0,0,0,-0.8987,-0.893,-0.8937,-0.8924,-0.8858,-0.8806,-0.8798,-0.8794,-0.8815,-0.8789,-0.8774,-0.8784,-0.8682,-0.8709,-0.8696,-0.8662,-0.8558,-0.8553,-0.8549,-0.8521,-0.8511,-0.8503,0,0,0,0,0,0,-0.8956,-0.8926,-0.8933,-0.8865,-0.8839,-0.881,-0.8775,-0.8783,-0.8749,-0.8753,-0.8748,-0.8741,-0.8681,-0.8666,-0.8696,-0.8595,-0.8624,-0.8616,-0.8607,-0.8598,-0.8591,-0.8596,-0.8722,0,0,0,0,0,-0.8942,-0.8903,-0.8878,-0.8821,-0.8807,-0.8794,-0.8771,-0.877,-0.8742,-0.8731,-0.8712,-0.8684,-0.8646,-0.8621,-0.8584,-0.8516,-0.851,-0.8486,-0.8479,-0.8473,-0.8467,-0.8433,-0.8423,-0.853,-0.853,-0.853,0,0,-0.8911,-0.889,-0.8865,-0.8814,-0.8794,-0.8754,-0.8784,-0.8739,-0.8711,-0.8724,-0.8668,-0.8654,-0.8623,-0.856,-0.8531,-0.8545,-0.8436,-0.8467,-0.8462,-0.8459,-0.8427,-0.8417,-0.8408,-0.8527,-0.8527,-0.8528,0,0,-0.8836,-0.8815,-0.8766,-0.8746,-0.8715,-0.8707,-0.8696,-0.8667,-0.8658,-0.8603,-0.8613,-0.8579,-0.8512,-0.8491,-0.8471,-0.8393,-0.8402,-0.8381,-0.8343,-0.831,-0.8302,-0.8294,-0.8269,-0.8259,-0.8374,-0.8374,-0.8374,0,-0.8801,-0.8742,-0.874,-0.8696,-0.8675,-0.8687,-0.8639,-0.8619,-0.8577,-0.8563,-0.8579,-0.8499,-0.8479,-0.8413,-0.8395,-0.8377,-0.8366,-0.8385,-0.8303,-0.8296,-0.8289,-0.8264,-0.8254,-0.8372,-0.8372,-0.8373,-0.8373,0,-0.8703,-0.8662,-0.8626,-0.8589,-0.8563,-0.8517,-0.8509,-0.8484,-0.8487,-0.8477,-0.8423,-0.8399,-0.836,-0.8344,-0.8345,-0.828,-0.829,-0.8304,-0.8334,-0.8276,-0.8254,-0.8244,-0.8369,-0.837,-0.837,-0.8371,0,0,-0.8603,-0.8568,-0.8555,-0.854,-0.8509,-0.8478,-0.8434,-0.8397,-0.8377,-0.8348,-0.8313,-0.8259,-0.8274,-0.8251,-0.825,-0.8222,-0.8165,-0.824,-0.824,-0.8229,-0.8095,-0.8085,-0.8074,-0.8171,-0.8169,-0.8167,-0.8098,0,-0.8527,-0.845,-0.8449,-0.8379,-0.8343,-0.8357,-0.8319,-0.8296,-0.8287,-0.8256,-0.8246,-0.8209,-0.823,-0.8217,-0.8189,-0.8177,-0.8138,-0.8182,-0.8139,-0.8137,-0.8147,-0.8061,-0.805,-0.7985,-0.8089,-0.8087,-0.8086,0,-0.8426,-0.8398,-0.8325,-0.8303,-0.8288,-0.8254,-0.8223,-0.8192,-0.8168,-0.8164,-0.8141,-0.8146,-0.8103,-0.8134,-0.8075,-0.8106,-0.8088,-0.808,-0.8078,-0.8074,-0.8109,-0.8057,-0.7964,-0.7955,-0.8071,-0.8073,-0.8074,0,-0.8365,-0.8308,-0.8258,-0.8244,-0.8216,-0.8193,-0.818,-0.8158,-0.8138,-0.811,-0.8097,-0.8064,-0.8047,-0.8022,-0.8018,-0.804,-0.7961,-0.799,-0.7958,-0.7958,-0.794,-0.7942,-0.7845,-0.7927,-0.7927,-0.7927,-0.7927,0,-0.828,-0.8235,-0.823,-0.8199,-0.8151,-0.8151,-0.8103,-0.8093,-0.8074,-0.8042,-0.8051,-0.8021,-0.8018,-0.7988,-0.7985,-0.7939,-0.793,-0.7927,-0.7927,-0.7926,-0.7927,-0.7915,-0.792,-0.7924,-0.7925,-0.7925,-0.7926,0,-0.8202,-0.8197,-0.8144,-0.8124,-0.8118,-0.8083,-0.8066,-0.8038,-0.8031,-0.7991,-0.7982,-0.7972,-0.7937,-0.7931,-0.7889,-0.7888,-0.7834,-0.7837,-0.7842,-0.7843,-0.7812,-0.7816,-0.7705,-0.7691,-0.7781,-0.778,-0.7779,0,-0.8148,-0.8115,-0.8093,-0.8073,-0.806,-0.8028,-0.8008,-0.8008,-0.7987,-0.7959,-0.7935,-0.7901,-0.7875,-0.7819,-0.7808,-0.7777,-0.7781,-0.7745,-0.7776,-0.7779,-0.7783,-0.7786,-0.7784,-0.7739,-0.7738,-0.7737,-0.7736,0,-0.8055,-0.8056,-0.8027,-0.7998,-0.7975,-0.7952,-0.793,-0.7914,-0.7911,-0.7887,-0.7853,-0.7833,-0.7792,-0.776,-0.773,-0.7718,-0.7727,-0.7727,-0.7718,-0.7718,-0.7723,-0.7722,-0.7827,-0.7729,-0.773,-0.773,-0.7731,-0.7731,-0.799,-0.7962,-0.7943,-0.7912,-0.7897,-0.7877,-0.7851,-0.7843,-0.7814,-0.7783,-0.7784,-0.7747,-0.7728,-0.7689,-0.7675,-0.7647,-0.7659,-0.7645,-0.7642,-0.7639,-0.7638,-0.7727,-0.7641,-0.7642,-0.7642,-0.7642,-0.7642,0,-0.7899,-0.7889,-0.786,-0.7831,-0.7808,-0.782,-0.7798,-0.7777,-0.7745,-0.7726,-0.7701,-0.7664,-0.7633,-0.7621,-0.7592,-0.7572,-0.7576,-0.7565,-0.7567,-0.7564,-0.7627,-0.7639,-0.7562,-0.7562,-0.7562,-0.7562,-0.7562,-0.7562,-0.7849,-0.7805,-0.7803,-0.7752,-0.7742,-0.7707,-0.7694,-0.7677,-0.7663,-0.7621,-0.7596,-0.7589,-0.7574,-0.7545,-0.7518,-0.7516,-0.7505,-0.7493,-0.7492,-0.7551,-0.7559,-0.7567,-0.7578,-0.749,-0.749,-0.7432,-0.7431,-0.7431]}]]